Estación Meteorológica Peña el Pijo (Robertgarden) [ 09/30/20 11:45:48 CEST ]

Fecha Hora Presion(HPa) Temp (°C) Humedad % Rocio (°C) Viento ( m/s) Direccion Lluvia 1Hora(mm) Lluvia 24H(mm) LLuvia Total(mm)
2020-Mar-09 01:09:08 1013.600 - - - - N     39.88
2020-Mar-09 02:13:15 1013.700 - - - - N     39.88
2020-Mar-09 03:09:33 1013.200 - - - - N     39.88
2020-Mar-09 04:10:08 1012.600 - - - - N     39.88
2020-Mar-09 05:09:37 1012.500 - - - - N     39.88
2020-Mar-09 06:09:20 1012.900 - - - - N     39.88
2020-Mar-09 07:09:36 1013.400 - - - - N     39.88
2020-Mar-09 08:09:19 1013.400 - - - - N     39.88
2020-Mar-09 09:09:10 1013.800 - - - - N     39.88
2020-Mar-09 10:08:32 1013.900 - - - - N     39.88
2020-Mar-09 11:09:19 1013.500 - - - - N     39.88
2020-Mar-09 12:09:17 1013.600 - - - - N     39.88
2020-Mar-09 13:09:07 1013.800 - - - - N     39.88
2020-Mar-09 14:09:07 1013.200 - - - - N     39.88
2020-Mar-09 15:09:21 1012.900 - - - - N     39.88
2020-Mar-09 16:09:01 1012.400 - - - - N     39.88
2020-Mar-09 17:09:03 1012.100 - - - - N     39.88
2020-Mar-09 18:09:12 1012.600 - - - - N     39.88
2020-Mar-09 19:09:01 1012.700 - - - - N     39.88
2020-Mar-09 20:08:51 1013.100 - - - - N     39.88
2020-Mar-09 21:09:01 1013.400 - - - - N     39.88
2020-Mar-09 22:09:27 1013.800 - - - - N     39.88
2020-Mar-09 23:08:57 1014.200 - - - - N     39.88

Temperatura Máxima:    Temperatura Mínima:
Presión Máxima:1014.200 Hpa    Presión Mínima:1012.100 Hpa


Volver